Location: Ash Swamp
(41.5170°N, 74.6157°W)
Time: 01:28:03
(UTC+00:00)

Cosmos 1980 Rocket - Pass Details

Date: 14 July 2020
Orbit: 828 x 851 km, 71.0° (Epoch: 14 August)

Event Time Altitude Azimuth Distance (km) Brightness Sun altitude
Rises 06:46:11 0° 343° (NNW) 3,426 6.1 -22.6°
Reaches altitude 10° 06:48:54 10° 353° (N) 2,486 5.4 -22.4°
Maximum altitude 06:54:02 33° 57° (ENE) 1,388 3.8 -22.0°
Drops below altitude 10° 06:59:07 10° 121° (ESE) 2,466 4.6 -21.5°
Sets 07:01:47 0° 130° (SE) 3,394 5.2 -21.3°
